Tracking 25723 objects as of 26-Jun-2022
HD Live streaming from Space Station
objects crossing your sky now

DMSP 5D-2 F13 DEB

Track DMSP 5D-2 F13 DEB now!
10-day predictions


NORAD ID: 40461
Int'l Code: 1995-015BD
Perigee: 722.8 km
Apogee: 785.9 km
Inclination: 98.8 °
Period: 99.8 minutes
Semi major axis: 7125 km
RCS: Unknown
Launch date: March 24, 1995
Source: United States (US)
Launch site: AIR FORCE WESTERN TEST RANGE (AFWTR)

Note: This is SATELLITE DEBRIS
aabbcc
Your satellite tracking list
Your tracking list is empty




NASA's NSSDC Master Catalog

Two Line Element Set (TLE):
1 40461U 95015BD  22176.09558660  .00005880  00000-0  17331-2 0  9990
2 40461  98.8042 270.3714 0044219  59.9811 300.5755 14.43423569381878
Source of the keplerian elements: AFSPC